BBC1X VGHS-VGBR

Flight info

Callsign BBC1X
Flight time 0h 23m
Altitude 10000
Route KAKBO1 KAKBO W9 BL
Aircraft B738/M-SDE2E3FGHIRWXY/LB1

Departure

Time 2026-05-09 03:57
Airport Hazrat Shahjalal International Airport (VGHS)

Arrival

Time 2026-05-09 04:21
Airport Barisal Airport (VGBR)
Time Latitude Longitude Altitude Speed Heading
2026-05-09 03:31 23.85063 90.40177 47 ft 0 kts 53°
2026-05-09 03:45 23.85059 90.40172 47 ft 2 kts 53°
2026-05-09 03:46 23.85051 90.40159 47 ft 2 kts 54°
2026-05-09 03:46 23.85042 90.40145 46 ft 2 kts 54°
2026-05-09 03:46 23.85036 90.40137 46 ft 2 kts 49°
2026-05-09 03:46 23.85023 90.40131 46 ft 2 kts 358°
2026-05-09 03:47 23.85012 90.40133 45 ft 0 kts 327°
2026-05-09 03:47 23.85007 90.40138 45 ft 1 kts 323°
2026-05-09 03:47 23.85006 90.40139 45 ft 0 kts 323°
2026-05-09 03:52 23.85007 90.40138 45 ft 0 kts 323°
2026-05-09 03:52 23.85022 90.40126 46 ft 4 kts 325°
2026-05-09 03:52 23.85057 90.40099 46 ft 7 kts 323°
2026-05-09 03:53 23.85097 90.40067 47 ft 7 kts 323°
2026-05-09 03:53 23.85145 90.40030 48 ft 8 kts 323°
2026-05-09 03:53 23.85171 90.39975 47 ft 10 kts 256°
2026-05-09 03:53 23.85121 90.39890 41 ft 14 kts 240°
2026-05-09 03:54 23.85150 90.39801 39 ft 15 kts 322°
2026-05-09 03:54 23.85259 90.39716 38 ft 21 kts 324°
2026-05-09 03:54 23.85392 90.39609 38 ft 25 kts 323°
2026-05-09 03:54 23.85544 90.39487 39 ft 26 kts 323°
2026-05-09 03:55 23.85695 90.39368 39 ft 27 kts 323°
2026-05-09 03:55 23.85765 90.39275 37 ft 10 kts 256°
2026-05-09 03:55 23.85721 90.39198 37 ft 14 kts 233°
2026-05-09 03:55 23.85648 90.39088 39 ft 20 kts 234°
2026-05-09 03:56 23.85561 90.38958 42 ft 20 kts 233°
2026-05-09 03:56 23.85502 90.38875 45 ft 4 kts 228°
2026-05-09 03:56 23.85483 90.38869 45 ft 2 kts 159°
2026-05-09 03:56 23.85451 90.38893 45 ft 14 kts 144°
2026-05-09 03:57 23.85155 90.39128 44 ft 91 kts 143°
2026-05-09 03:57 23.84450 90.39687 40 ft 155 kts 143°
2026-05-09 03:57 23.83493 90.40436 435 ft 172 kts 143°
2026-05-09 03:57 23.82557 90.41141 1229 ft 166 kts 143°
2026-05-09 03:58 23.81575 90.41849 1792 ft 179 kts 151°
2026-05-09 03:58 23.80324 90.42219 2362 ft 197 kts 179°
2026-05-09 03:58 23.78915 90.41998 2982 ft 214 kts 197°
2026-05-09 03:58 23.77529 90.41312 3607 ft 229 kts 212°
2026-05-09 03:59 23.76110 90.40411 4203 ft 245 kts 200°
2026-05-09 03:59 23.74376 90.40044 4804 ft 260 kts 182°
2026-05-09 03:59 23.72502 90.39980 5341 ft 277 kts 181°
2026-05-09 03:59 23.70550 90.39889 6058 ft 285 kts 183°
2026-05-09 04:00 23.68565 90.39724 6849 ft 290 kts 185°
2026-05-09 04:00 23.66565 90.39516 7659 ft 295 kts 185°
2026-05-09 04:00 23.64496 90.39284 8511 ft 299 kts 186°
2026-05-09 04:00 23.62436 90.39045 9349 ft 303 kts 186°
2026-05-09 04:01 23.60285 90.38796 10153 ft 314 kts 186°
2026-05-09 04:01 23.58103 90.38545 10950 ft 325 kts 186°
2026-05-09 04:01 23.55840 90.38290 11580 ft 338 kts 186°
2026-05-09 04:01 23.53429 90.38021 11932 ft 349 kts 186°
2026-05-09 04:02 23.50987 90.37746 11971 ft 349 kts 186°
2026-05-09 04:02 23.48595 90.37477 11968 ft 344 kts 186°
2026-05-09 04:02 23.46210 90.37212 11943 ft 341 kts 186°
2026-05-09 04:02 23.43848 90.36951 11939 ft 341 kts 186°
2026-05-09 04:03 23.41483 90.36688 11940 ft 339 kts 186°
2026-05-09 04:03 23.39141 90.36426 11939 ft 338 kts 186°
2026-05-09 04:03 23.36778 90.36159 11934 ft 337 kts 186°
2026-05-09 04:03 23.34453 90.35897 11934 ft 338 kts 186°
2026-05-09 04:04 23.32096 90.35631 11934 ft 338 kts 186°
2026-05-09 04:04 23.29764 90.35369 11933 ft 338 kts 186°
2026-05-09 04:04 23.27398 90.35103 11925 ft 334 kts 186°
2026-05-09 04:04 23.25132 90.34849 11747 ft 321 kts 186°
2026-05-09 04:05 23.22940 90.34604 11423 ft 314 kts 187°
2026-05-09 04:05 23.20766 90.34359 10985 ft 311 kts 187°
2026-05-09 04:05 23.18631 90.34118 10563 ft 308 kts 187°
2026-05-09 04:05 23.16530 90.33882 10311 ft 298 kts 186°
2026-05-09 04:06 23.14508 90.33658 10198 ft 285 kts 186°
2026-05-09 04:06 23.12561 90.33437 10090 ft 272 kts 187°
2026-05-09 04:06 23.10703 90.33226 9861 ft 266 kts 187°
2026-05-09 04:06 23.08863 90.33013 9499 ft 266 kts 186°
2026-05-09 04:07 23.07012 90.32809 9169 ft 264 kts 186°
2026-05-09 04:07 23.05200 90.32606 8827 ft 264 kts 186°
2026-05-09 04:07 23.03363 90.32401 8468 ft 264 kts 186°
2026-05-09 04:07 23.01550 90.32198 8143 ft 263 kts 186°
2026-05-09 04:08 22.99730 90.31992 7817 ft 262 kts 186°
2026-05-09 04:08 22.97913 90.31789 7495 ft 266 kts 186°
2026-05-09 04:08 22.96002 90.31575 7149 ft 279 kts 186°
2026-05-09 04:08 22.94070 90.31360 6799 ft 277 kts 186°
2026-05-09 04:09 22.92178 90.31150 6450 ft 267 kts 186°
2026-05-09 04:09 22.90358 90.30948 6134 ft 257 kts 186°
2026-05-09 04:09 22.88614 90.30754 5818 ft 248 kts 186°
2026-05-09 04:09 22.86928 90.30721 5551 ft 237 kts 165°
2026-05-09 04:10 22.85568 90.31576 5333 ft 220 kts 125°
2026-05-09 04:10 22.85127 90.33030 5240 ft 196 kts 81°
2026-05-09 04:10 22.85745 90.34245 5236 ft 186 kts 33°
2026-05-09 04:10 22.86952 90.34536 5136 ft 179 kts 346°
2026-05-09 04:11 22.87935 90.33760 4736 ft 184 kts 297°
2026-05-09 04:11 22.88021 90.32404 4322 ft 190 kts 248°
2026-05-09 04:11 22.87111 90.31389 3949 ft 191 kts 204°
2026-05-09 04:11 22.85879 90.30858 3655 ft 189 kts 200°
2026-05-09 04:12 22.84674 90.30442 3469 ft 179 kts 193°
2026-05-09 04:12 22.83442 90.30190 3151 ft 179 kts 187°
2026-05-09 04:12 22.82194 90.30032 2839 ft 178 kts 186°
2026-05-09 04:12 22.80972 90.29898 2591 ft 176 kts 185°
2026-05-09 04:13 22.79752 90.29775 2345 ft 176 kts 184°
2026-05-09 04:13 22.78519 90.29719 2105 ft 175 kts 181°
2026-05-09 04:13 22.77291 90.29688 1855 ft 175 kts 181°
2026-05-09 04:13 22.76067 90.29658 1606 ft 174 kts 181°
2026-05-09 04:14 22.74870 90.29620 1441 ft 170 kts 181°
2026-05-09 04:14 22.73711 90.29585 1334 ft 161 kts 181°
2026-05-09 04:14 22.72596 90.29551 1231 ft 159 kts 181°
2026-05-09 04:14 22.71502 90.29517 1181 ft 156 kts 181°
2026-05-09 04:15 22.70407 90.29484 1188 ft 158 kts 181°
2026-05-09 04:15 22.69297 90.29450 1187 ft 157 kts 181°
2026-05-09 04:15 22.68203 90.29417 1188 ft 157 kts 181°
2026-05-09 04:15 22.67173 90.29542 1189 ft 143 kts 153°
2026-05-09 04:16 22.66461 90.30267 1190 ft 140 kts 120°
2026-05-09 04:16 22.66096 90.31210 1186 ft 136 kts 98°
2026-05-09 04:16 22.66155 90.32221 1188 ft 133 kts 68°
2026-05-09 04:16 22.66624 90.33064 1189 ft 131 kts 45°
2026-05-09 04:17 22.67374 90.33619 1187 ft 129 kts 19°
2026-05-09 04:17 22.68259 90.33746 1189 ft 129 kts 355°
2026-05-09 04:17 22.69101 90.33387 1197 ft 134 kts 324°
2026-05-09 04:17 22.69922 90.32916 1184 ft 133 kts 346°
2026-05-09 04:18 22.70841 90.32698 1189 ft 134 kts 346°
2026-05-09 04:18 22.71731 90.32425 1187 ft 134 kts 343°
2026-05-09 04:18 22.72641 90.32154 1187 ft 134 kts 350°
2026-05-09 04:18 22.73563 90.31996 1164 ft 132 kts 349°
2026-05-09 04:19 22.74452 90.31745 972 ft 130 kts 341°
2026-05-09 04:19 22.75267 90.31360 768 ft 128 kts 331°
2026-05-09 04:19 22.76021 90.30844 601 ft 127 kts 327°
2026-05-09 04:19 22.76800 90.30348 446 ft 133 kts 346°
2026-05-09 04:20 22.77719 90.30345 422 ft 127 kts
2026-05-09 04:20 22.78596 90.30266 224 ft 128 kts 353°
2026-05-09 04:20 22.79492 90.30173 31 ft 124 kts 349°
2026-05-09 04:20 22.80223 90.30088 24 ft 65 kts 352°
2026-05-09 04:21 22.80329 90.30077 24 ft 0 kts 352°